When you browse on this site, cookies collect data to enhance your experience and personalize the content and advertising you see.
Visit our Privacy Policy to learn more. By continuing to use the site, you agree to this use of cookies and data.
  • în România
  • Lista ţărilor
  • Pe 7 zile
  • Temperatura apei
  • Hartă satelitară
  • Meteo pe hartă
  • Widget-uri
  • user-avatar
    Intrare

    Meteo pe oră la Moyomamba

    Astăzi, 25 Mai, Sâmbătă

    Timp Temperatura Precipitaţii Vânt Presiune Umiditate
    00:00 +18°C° 0.3 mm 0 m/s 682 mmHg 86%
    01:00 +18°C° 0.3 mm 0 m/s 682 mmHg 87%
    02:00 +18°C° 0.3 mm 0 m/s 682 mmHg 86%
    03:00 +20°C° 0.3 mm 1 m/s 682 mmHg 85%
    04:00 +20°C° 0.3 mm 1 m/s 682 mmHg 84%
    05:00 +20°C° 0.1 mm 1 m/s 682 mmHg 83%
    06:00 +20°C° 0.1 mm 1 m/s 683 mmHg 82%
    07:00 +18°C° 0.1 mm 0 m/s 683 mmHg 81%
    08:00 +22°C° 0.3 mm 1 m/s 684 mmHg 77%
    09:00 +24°C° 0.3 mm 1 m/s 684 mmHg 73%
    10:00 +26°C° 0.3 mm 1 m/s 685 mmHg 69%
    11:00 +27°C° 0.6 mm 1 m/s 684 mmHg 66%
    12:00 +28°C° 0.6 mm 1 m/s 684 mmHg 63%
    13:00 +29°C° 0.6 mm 1 m/s 684 mmHg 60%
    14:00 +28°C° 0.5 mm 1 m/s 683 mmHg 61%
    15:00 +28°C° 0.5 mm 1 m/s 682 mmHg 62%
    16:00 +28°C° 0.5 mm 1 m/s 681 mmHg 63%
    17:00 +26°C° 0.9 mm 1 m/s 681 mmHg 73%
    18:00 +22°C° 0.9 mm 0 m/s 681 mmHg 84%
    19:00 +20°C° 0.9 mm 0 m/s 681 mmHg 94%
    20:00 +19°C° 0.4 mm 0 m/s 681 mmHg 95%
    21:00 +19°C° 0.4 mm 0 m/s 682 mmHg 95%
    22:00 +19°C° 0.4 mm 0 m/s 683 mmHg 95%
    23:00 +18°C° 0 mm 0 m/s 682 mmHg 95%

    Mâine, 26 Mai, Duminică

    Timp Temperatura Precipitaţii Vânt Presiune Umiditate
    00:00 +18°C° 0 mm 0 m/s 682 mmHg 95%
    01:00 +18°C° 0 mm 0 m/s 682 mmHg 95%
    02:00 +18°C° 0 mm 0 m/s 682 mmHg 94%
    03:00 +18°C° 0 mm 0 m/s 682 mmHg 94%
    04:00 +18°C° 0 mm 0 m/s 681 mmHg 94%
    05:00 +18°C° 0 mm 0 m/s 682 mmHg 92%
    06:00 +18°C° 0 mm 0 m/s 682 mmHg 90%
    07:00 +19°C° 0 mm 0 m/s 683 mmHg 89%
    08:00 +22°C° 0.1 mm 0 m/s 683 mmHg 77%
    09:00 +25°C° 0.1 mm 0 m/s 684 mmHg 66%
    10:00 +27°C° 0.1 mm 0 m/s 685 mmHg 54%
    11:00 +30°C° 0.4 mm 1 m/s 684 mmHg 55%
    12:00 +30°C° 0.4 mm 1 m/s 683 mmHg 55%
    13:00 +31°C° 0.4 mm 1 m/s 682 mmHg 55%
    14:00 +30°C° 0.5 mm 1 m/s 682 mmHg 57%
    15:00 +30°C° 0.5 mm 1 m/s 681 mmHg 58%
    16:00 +30°C° 0.5 mm 1 m/s 680 mmHg 60%
    17:00 +27°C° 0.3 mm 1 m/s 680 mmHg 67%
    18:00 +23°C° 0.3 mm 0 m/s 680 mmHg 74%
    19:00 +21°C° 0.3 mm 0 m/s 680 mmHg 81%
    20:00 +21°C° 0.3 mm 0 m/s 681 mmHg 83%
    21:00 +20°C° 0.3 mm 0 m/s 681 mmHg 85%
    22:00 +20°C° 0.3 mm 0 m/s 682 mmHg 87%
    23:00 +19°C° 1.2 mm 0 m/s 682 mmHg 88%

    Poimâine, 27 Mai, Luni

    Timp Temperatura Precipitaţii Vânt Presiune Umiditate
    00:00 +19°C° 1.2 mm 0 m/s 682 mmHg 89%
    01:00 +19°C° 1.2 mm 0 m/s 681 mmHg 90%
    02:00 +19°C° 1.1 mm 0 m/s 681 mmHg 91%
    03:00 +19°C° 1.1 mm 0 m/s 681 mmHg 91%
    04:00 +19°C° 1.1 mm 0 m/s 681 mmHg 92%
    05:00 +19°C° 0.4 mm 0 m/s 681 mmHg 91%
    06:00 +19°C° 0.4 mm 0 m/s 681 mmHg 90%
    07:00 +19°C° 0.4 mm 0 m/s 682 mmHg 90%
    08:00 +21°C° 0.2 mm 0 m/s 683 mmHg 82%
    09:00 +23°C° 0.2 mm 0 m/s 683 mmHg 74%
    10:00 +25°C° 0.2 mm 0 m/s 684 mmHg 66%
    11:00 +26°C° 0.6 mm 0 m/s 683 mmHg 64%
    12:00 +30°C° 0.6 mm 1 m/s 683 mmHg 63%
    13:00 +31°C° 0.6 mm 1 m/s 682 mmHg 61%
    14:00 +30°C° 0.6 mm 1 m/s 681 mmHg 60%
    15:00 +30°C° 0.6 mm 1 m/s 680 mmHg 60%
    16:00 +29°C° 0.6 mm 1 m/s 680 mmHg 59%
    17:00 +27°C° 0.8 mm 1 m/s 680 mmHg 69%
    18:00 +23°C° 0.8 mm 0 m/s 680 mmHg 78%
    19:00 +21°C° 0.8 mm 0 m/s 680 mmHg 88%
    20:00 +20°C° 1 mm 0 m/s 680 mmHg 89%
    21:00 +20°C° 1 mm 0 m/s 681 mmHg 91%
    22:00 +19°C° 1 mm 0 m/s 681 mmHg 93%
    23:00 +19°C° 1.7 mm 0 m/s 681 mmHg 93%

    28 Mai, Marţi

    Timp Temperatura Precipitaţii Vânt Presiune Umiditate
    00:00 +19°C° 1.7 mm 0 m/s 681 mmHg 93%
    01:00 +19°C° 1.7 mm 0 m/s 681 mmHg 93%
    02:00 +19°C° 1 mm 0 m/s 681 mmHg 92%
    03:00 +19°C° 1 mm 0 m/s 680 mmHg 92%
    04:00 +18°C° 1 mm 0 m/s 680 mmHg 91%
    05:00 +19°C° 0.6 mm 0 m/s 681 mmHg 90%
    06:00 +19°C° 0.6 mm 0 m/s 681 mmHg 89%
    07:00 +19°C° 0.6 mm 0 m/s 682 mmHg 88%
    08:00 +22°C° 0.3 mm 0 m/s 683 mmHg 78%
    09:00 +25°C° 0.3 mm 0 m/s 683 mmHg 68%
    10:00 +28°C° 0.3 mm 0 m/s 684 mmHg 58%
    11:00 +28°C° 0.5 mm 0 m/s 684 mmHg 60%
    12:00 +30°C° 0.5 mm 1 m/s 683 mmHg 62%
    13:00 +30°C° 0.5 mm 1 m/s 682 mmHg 64%
    14:00 +29°C° 0.6 mm 1 m/s 681 mmHg 67%
    15:00 +28°C° 0.6 mm 1 m/s 680 mmHg 70%
    16:00 +28°C° 0.6 mm 1 m/s 679 mmHg 74%
    17:00 +26°C° 0.2 mm 1 m/s 679 mmHg 80%
    18:00 +22°C° 0.2 mm 0 m/s 679 mmHg 86%
    19:00 +20°C° 0.2 mm 0 m/s 680 mmHg 92%
    20:00 +20°C° 0.2 mm 0 m/s 680 mmHg 93%
    21:00 +19°C° 0.2 mm 0 m/s 681 mmHg 93%
    22:00 +19°C° 0.2 mm 0 m/s 681 mmHg 94%
    23:00 +19°C° 0.1 mm 0 m/s 681 mmHg 94%

    29 Mai, Miercuri

    Timp Temperatura Precipitaţii Vânt Presiune Umiditate
    00:00 +19°C° 0.1 mm 0 m/s 681 mmHg 94%
    01:00 +21°C° 0.1 mm 1 m/s 681 mmHg 93%
    02:00 +18°C° 0 mm 0 m/s 681 mmHg 93%
    03:00 +18°C° 0 mm 0 m/s 680 mmHg 92%
    04:00 +18°C° 0 mm 0 m/s 680 mmHg 91%
    05:00 +18°C° 0 mm 0 m/s 681 mmHg 89%
    06:00 +19°C° 0 mm 0 m/s 681 mmHg 87%
    07:00 +19°C° 0 mm 0 m/s 682 mmHg 85%
    08:00 +22°C° 0.2 mm 0 m/s 683 mmHg 77%
    09:00 +24°C° 0.2 mm 0 m/s 683 mmHg 69%
    10:00 +27°C° 0.2 mm 0 m/s 684 mmHg 62%
    11:00 +30°C° 0.4 mm 1 m/s 683 mmHg 61%
    12:00 +30°C° 0.4 mm 1 m/s 682 mmHg 60%
    13:00 +30°C° 0.4 mm 1 m/s 682 mmHg 60%
    14:00 +30°C° 0.6 mm 1 m/s 681 mmHg 63%
    15:00 +29°C° 0.6 mm 1 m/s 680 mmHg 66%
    16:00 +28°C° 0.6 mm 1 m/s 679 mmHg 69%
    17:00 +26°C° 0.5 mm 1 m/s 680 mmHg 77%
    18:00 +22°C° 0.5 mm 0 m/s 680 mmHg 84%
    19:00 +20°C° 0.5 mm 0 m/s 680 mmHg 91%
    20:00 +20°C° 0.5 mm 0 m/s 681 mmHg 93%
    21:00 +20°C° 0.5 mm 0 m/s 681 mmHg 94%
    22:00 +19°C° 0.5 mm 0 m/s 681 mmHg 96%
    23:00 +19°C° 0.2 mm 0 m/s 681 mmHg 95%

    30 Mai, Joi

    Timp Temperatura Precipitaţii Vânt Presiune Umiditate
    00:00 +19°C° 0.2 mm 0 m/s 681 mmHg 95%
    01:00 +20°C° 0.2 mm 1 m/s 681 mmHg 95%
    02:00 +20°C° 0 mm 1 m/s 680 mmHg 94%
    03:00 +20°C° 0 mm 1 m/s 680 mmHg 93%
    04:00 +17°C° 0 mm 0 m/s 680 mmHg 92%
    05:00 +18°C° 0 mm 0 m/s 680 mmHg 91%
    06:00 +18°C° 0 mm 0 m/s 681 mmHg 89%
    07:00 +18°C° 0 mm 0 m/s 682 mmHg 87%
    08:00 +21°C° 0 mm 0 m/s 682 mmHg 75%
    09:00 +25°C° 0 mm 0 m/s 683 mmHg 62%
    10:00 +28°C° 0 mm 0 m/s 684 mmHg 50%
    11:00 +31°C° 0 mm 1 m/s 683 mmHg 47%
    12:00 +31°C° 0 mm 1 m/s 683 mmHg 44%
    13:00 +32°C° 0 mm 1 m/s 682 mmHg 41%
    14:00 +32°C° 0 mm 1 m/s 681 mmHg 43%
    15:00 +31°C° 0 mm 1 m/s 680 mmHg 46%
    16:00 +30°C° 0 mm 1 m/s 679 mmHg 48%
    17:00 +28°C° 0 mm 1 m/s 680 mmHg 57%
    18:00 +26°C° 0 mm 1 m/s 680 mmHg 66%
    19:00 +22°C° 0 mm 0 m/s 680 mmHg 76%
    20:00 +21°C° 0.1 mm 0 m/s 680 mmHg 79%
    21:00 +20°C° 0.1 mm 0 m/s 681 mmHg 82%
    22:00 +20°C° 0.1 mm 0 m/s 681 mmHg 85%
    23:00 +19°C° 0 mm 0 m/s 681 mmHg 86%
    Arată mai mult